NOAA 20 (43013 NORAD) Tracking and Keplerian Element Data

This shows tracking and keplerian element data for the satellite.

Feedback or suggestion? Click here.




ElementValue
Catalog43013
NameNOAA 20
Epoch Orbit12293
Epoch Day93.86675255
Epoch Year2020
RAAN33.0089
Inclination98.7121
Eccentricity0.0001016
Argument of Perigee106.5716
Mean Anonmoly253.5571
Mean Motion14.19550379
Decay Rate7E-08
L11 43013U 17073A 20093.86675255 .00000007 00000-0 23868-4 0 9995
L22 43013 98.7121 33.0089 0001016 106.5716 253.5571 14.19550379122937

Live tracking and technical data element details for NOAA 20 (NORAD 43013). NOAA 20 can be tracked NOW for your location showing map with azimuth and elevation plus other details from your city location.

Track the satellite on the map from your city or location and see movement details for azimuth, elevation, latitude, longitude, range, height, and movement on the map or in text.







IsCatalogInMostPopularTable: catalog: 43013, numindb: 546
Update: records affected: 1



GetName: 43013 NOAA 20

Hit Count: updated at: Tue, 07 Apr 2020 22:03:37 GMT